User: anonymous   Login
Location: Chuathbaluk
(61.5726°N, 159.2454°W)
Time: 03:56:44
(UTC+00:00)
Language:

Vanguard 3 - Orbit

View from above orbital plane
View from above orbital plane
View from above satellite
View from above satellite

Ground track
Ground track

The orbit data is extracted from the following two-line orbital elements,

1 00020U 59007A   21138.22023743  .00000009  00000-0 -12048-4 0  9990
2 00020  33.3557  69.3168 1667045 242.7398  99.3875 11.55805234269346
Epoch (UTC): 18 May 2021 05:17:08
Eccentricity: 0.1667045
inclination: 33.3557°
perigee height: 507 km
apogee height: 3262 km
right ascension of ascending node: 69.3168°
argument of perigee: 242.7398°
revolutions per day: 11.55805234
mean anomaly at epoch: 99.3875°
orbit number at epoch: 26934

The dashed part of the orbit path shows where the satellite is in the earth's shadow,  

DLR